Lid_Strength_Index
-1 -1 -1 -1 -1 -0 -0 -0 -0 -0 -0 -0 -1 -1 -1 -1 -1 1 2 1 4 7 7 6 5 7 7 7 10 8 9 9 10 13 13 13 14 13 13 12 13 15 16 16 15 17 18 9 8 12 8 8 8 7
-1 -1 -1 -1 -0 -0 -0 -0 -0 -0 -0 -0 -0 -0 -1 -1 -1 -0 4 1 1 5 5 4 4 4 3 4 6 6 8 8 8 10 11 11 13 12 13 15 10 15 14 15 14 14 8 8 7 6 7 7 8 8
-1 -1 -0 -0 -0 -0 -0 0 -0 -0 -0 -0 -0 -0 -1 -1 -1 -0 2 2 3 6 6 6 6 4 2 3 2 7 6 6 7 5 8 10 12 10 13 13 12 11 11 14 13 10 10 9 8 7 9 8 8 9
-0 -0 -0 -0 -0 -0 -0 0 -0 -0 -0 -0 -0 -0 -0 -0 -0 -0 2 1 3 5 9 8 5 5 3 2 2 3 4 4 4 5 8 10 11 8 11 11 11 10 11 12 12 11 9 9 8 8 8 9 9 9
0 -0 0 -0 -0 -0 -0 -0 0 -0 -0 -0 -0 -0 -0 -0 -0 0 1 1 1 5 9 9 6 4 3 3 3 3 4 5 7 8 9 10 8 9 9 9 11 9 11 13 13 11 11 10 9 9 9 9 9 10
-0 -0 0 0 0 0 -0 -0 -0 0 -0 -0 0 0 -0 -0 -0 2 6 2 1 3 8 11 7 7 5 4 4 5 4 5 6 8 8 8 8 8 12 12 9 9 9 9 11 9 10 10 9 9 10 10 10 10
-0 -0 0 0 0 0 0 -0 0 0 -0 0 1 -0 -0 -0 1 4 6 3 0 2 7 10 9 7 5 5 5 5 5 6 6 8 9 8 8 8 10 12 9 9 8 9 8 10 11 10 10 10 11 11 12 12
0 -0 0 0 0 -0 0 0 0 -0 -0 0 0 -0 0 -0 1 4 1 0 1 5 7 12 11 8 5 7 8 5 7 6 7 8 8 9 8 9 12 9 8 9 8 8 8 9 10 10 12 14 13 12 13 12
-0 -0 0 0 0 -0 -0 -0 -0 -0 -0 0 -0 -0 3 4 5 4 0 1 4 5 10 10 12 13 6 7 7 7 6 10 7 9 9 9 10 13 10 8 8 7 9 9 10 12 12 11 12 14 14 14 14 15
-0 -0 0 0 0 -0 -0 -0 -0 -0 -0 0 4 6 7 5 0 2 5 6 6 9 11 11 13 11 7 8 9 9 8 10 12 10 8 10 11 8 9 10 10 10 11 11 13 14 14 13 14 14 14 14 13 14
0 0 0 0 0 0 -0 -0 -0 -0 1 6 9 8 5 2 5 7 9 10 12 13 13 13 12 11 8 11 10 9 11 11 14 11 11 12 13 10 15 14 15 16 15 16 15 14 14 12 13 15 15 14 15 15
1 0 0 0 0 -0 -0 -0 0 5 7 6 5 4 5 8 10 13 14 15 13 14 15 13 12 10 10 8 10 12 12 13 15 11 12 14 14 21 21 20 19 18 18 18 17 15 14 12 12 13 14 15 15 17
1 0 1 0 0 0 -0 -0 -0 1 4 6 9 10 9 12 14 14 17 18 17 16 15 13 12 11 11 10 12 13 15 15 14 15 14 16 22 23 24 22 21 19 19 19 17 16 15 15 13 13 15 17 17 17
1 1 1 1 1 2 1 0 2 5 9 12 12 14 14 16 16 20 19 19 18 17 16 13 14 13 14 14 15 16 17 17 18 19 16 24 27 26 25 24 22 20 18 18 18 17 17 17 17 17 17 16 17 18
2 1 2 2 2 3 4 5 7 13 13 14 13 16 19 22 22 23 24 22 20 19 17 14 15 14 16 17 18 17 19 18 18 19 26 28 29 27 26 25 24 21 20 19 18 18 17 17 18 18 18 17 18 18
3 3 5 2 2 4 6 9 14 16 20 19 23 21 23 22 22 23 24 22 21 21 19 16 14 15 18 19 18 19 19 18 26 30 30 29 29 29 28 26 24 21 20 20 19 18 19 19 20 20 20 19 19 20
5 9 4 3 3 6 8 16 18 24 23 25 26 28 26 25 26 26 26 25 22 22 17 17 15 17 22 23 24 32 29 31 32 31 29 30 30 29 28 26 25 22 22 21 21 20 20 20 21 21 23 24 23 24
9 7 4 4 6 12 19 20 22 23 26 27 25 26 28 28 28 28 27 25 24 23 20 20 22 23 26 23 28 33 32 31 30 30 30 30 29 28 27 27 27 26 24 22 21 21 20 22 24 24 24 24 25 26
8 6 5 5 9 17 19 21 22 26 27 25 23 24 26 27 26 27 28 26 24 25 25 25 30 32 34 35 35 33 33 33 32 30 29 29 29 29 28 27 27 27 28 27 27 27 26 24 24 23 23 23 26 26
8 8 7 7 10 18 22 23 23 24 27 24 23 26 26 27 26 28 29 29 28 30 36 36 38 37 36 35 34 34 32 32 31 29 29 29 29 29 29 28 27 27 27 27 27 25 26 27 28 26 24 23 24 26
16 14 11 13 17 22 28 31 26 23 24 24 24 24 26 26 30 31 32 30 34 36 36 35 35 34 33 34 34 34 32 32 32 31 31 30 29 29 29 29 28 28 29 29 30 31 31 31 30 28 27 28 28 27
22 14 18 16 18 23 24 26 24 22 23 25 25 26 28 30 30 32 30 34 36 36 35 35 34 34 34 35 35 34 34 32 31 30 30 31 31 31 31 30 30 32 33 32 32 33 33 31 30 29 29 29 29 29
21 23 25 23 20 23 25 23 25 27 27 28 27 29 30 30 30 28 35 35 34 32 33 33 33 33 34 34 34 33 34 32 33 32 31 32 32 31 31 32 30 31 32 34 32 32 33 31 31 30 30 29 30 31
24 34 36 34 30 30 28 28 26 26 28 31 28 30 32 31 29 33 38 36 34 32 33 33 32 33 33 34 35 35 35 33 32 32 32 31 32 34 33 33 33 33 33 32 33 33 33 33 32 32 31 31 31 32
27 37 36 39 36 34 31 31 31 29 33 32 29 31 33 31 34 37 38 36 35 35 34 33 33 34 35 35 34 34 34 34 33 34 33 31 31 32 33 33 34 34 32 31 32 33 34 33 33 33 32 32 32 33
40 41 39 41 38 39 38 33 36 36 34 33 36 34 33 32 36 41 39 36 35 35 34 35 36 34 34 35 34 34 35 34 33 33 34 33 32 30 31 31 32 33 33 33 32 33 34 34 34 33 34 35 35 32
40 41 39 37 38 36 37 35 34 36 39 39 39 36 33 37 41 39 35 33 34 33 33 33 34 34 34 34 34 34 34 34 34 34 33 33 33 33 31 30 32 33 33 34 34 34 34 35 35 34 34 34 35 34
41 40 39 39 39 38 40 39 38 39 39 37 36 41 40 40 42 35 33 32 32 32 32 32 33 34 34 34 35 35 34 34 34 34 33 33 33 33 33 32 31 30 34 34 34 34 34 34 34 34 34 33 34 35
36 37 39 39 40 38 39 39 40 37 35 38 38 39 39 35 34 33 32 32 31 31 32 33 33 33 34 34 35 35 34 34 33 32 33 33 33 33 33 34 34 34 34 33 30 32 33 33 33 34 35 34 34 35
35 37 36 37 37 39 37 37 36 35 35 34 34 34 34 34 33 33 32 31 32 33 33 33 33 33 34 33 33 33 33 33 33 32 33 34 34 34 34 34 34 35 36 35 34 34 31 34 32 35 35 35 35 35
34 35 34 34 34 34 34 34 34 34 34 34 33 35 36 34 32 31 31 32 32 31 32 33 32 33 33 33 33 32 33 32 33 33 34 34 37 36 36 36 36 38 39 38 38 38 37 37 37 37 37 37 37 36
35 35 32 33 34 33 32 34 35 35 34 35 35 35 35 34 35 32 31 31 31 32 32 32 33 33 33 33 33 33 31 33 33 34 36 35 35 35 35 36 37 38 38 38 39 39 39 40 38 38 38 37 36 36
36 33 32 32 33 33 33 34 35 35 35 36 36 36 36 34 35 32 30 31 32 32 33 33 33 34 34 34 33 33 33 35 34 31 30 28 29 30 34 36 38 38 38 37 37 38 38 39 38 38 36 36 35 35